Torna al catalogo

SL-8 R/B

AttivoLEO
NORAD 13649·ROCKET BODY·🇷🇺 Russia

Lanciato Nov 11, 1982 da Plesetsk Cosmodrome

Loading…

Prossimi Passaggi (prossime 24 ore)

TLE

AggiornatoSource: Space-Track

Epoca: Sep 14, 2026, 11:20 UTC

1 13649U 82109B   26257.47270193  .00000033  00000-0  19457-4 0  9994
2 13649  73.9973 264.7033 0018523 344.7291 175.9029 14.38692638296513

Traccia SL-8 R/B in tempo reale con AllMySat

Download on the App Store